This is the latest recevied weather packets stored in our database for station/object CE3TDM-10. If no packets are shown the sender has not sent any weather packets the latest 10 day(s).
| Time | Temp. | Humidity | Pressure | Rain* | Wind** | Luminosity | Snow |
|---|---|---|---|---|---|---|---|
| 1787437113 | 27.22° C | 29% | 919.8 hPa | - | - | - | - |
| 1787436213 | 27.22° C | 29% | 919.7 hPa | - | - | - | - |
| 1787434413 | 27.78° C | 29% | 919.5 hPa | - | - | - | - |
| 1787433657 | 28.33° C | 29% | 919.6 hPa | - | - | - | - |
| 1787433513 | 28.33° C | 29% | 919.6 hPa | - | - | - | - |
| 1787432671 | 28.33° C | 29% | 919.5 hPa | - | - | - | - |
| 1787432613 | 28.33° C | 29% | 919.5 hPa | - | - | - | - |
| 1787431713 | 28.33° C | 29% | 919.5 hPa | - | - | - | - |
| 1787430813 | 28.33° C | 29% | 919.3 hPa | - | - | - | - |
| 1787429990 | 28.33° C | 29% | 919.2 hPa | - | - | - | - |
| 1787429913 | 28.33° C | 29% | 919.2 hPa | - | - | - | - |
| 1787429546 | 28.89° C | 29% | 919 hPa | - | - | - | - |
| 1787429013 | 28.89° C | 29% | 919 hPa | - | - | - | - |
| 1787428344 | 30° C | 29% | 919.1 hPa | - | - | - | - |
| 1787428113 | 30° C | 29% | 919.1 hPa | - | - | - | - |
| 1787427213 | 30.56° C | 30% | 919 hPa | - | - | - | - |
| 1787426363 | 31.11° C | 30% | 919 hPa | - | - | - | - |
| 1787426315 | 31.11° C | 30% | 919 hPa | - | - | - | - |
| 1787425416 | 31.11° C | 29% | 919 hPa | - | - | - | - |
| 1787424510 | 31.67° C | 30% | 919 hPa | - | - | - | - |
| 1787423610 | 32.22° C | 29% | 919.1 hPa | - | - | - | - |
| 1787422762 | 32.78° C | 29% | 919.1 hPa | - | - | - | - |
| 1787422710 | 32.78° C | 29% | 919.1 hPa | - | - | - | - |
| 1787419109 | 32.22° C | 30% | 919.7 hPa | - | - | - | - |
| 1787418209 | 31.67° C | 30% | 919.8 hPa | - | - | - | - |
* Rain since midnight (hover to see other rain measurements)
** Current wind speed in m/s (hover to see current wind gust speed)